ATLAS 5 CENTAUR DEB, 57595

Orbit data source: Space-Track

ATLAS 5 CENTAUR DEB, 57595 is space debris in HEO originally from a launch on Wed, 17 Oct 2018 UTC launched from the Air Force Eastern Test Range (AFETR). Debris objects in space refer to the collection of defunct objects orbiting the Earth. Examples of debris include non-operational satellites, rocket bodies, and fragments generated from explosions, collisions, or faulty payload assembly.

Loading next visibility...
Identifier
57595, 2018-079HW
Orbit
HEO
Country
Flag of USUS
Related business
Flag of USUnited Launch Alliance/Lockheed Martin (US)
Manufacturer
ULA Decatur
Mission
Spacecraft
Bus & Motor
Unknown
Mass
Unknown
Launch date (UTC)
2018-10-17 (7 years ago)
Launch vehicle
Unknown
Launch site
Air Force Eastern Test Range (AFETR)
Object type
Payload
Rocket body
Debris
Shape & HBR
Unknown shape, 1.1 m
Radar Cross Section
RCS unknown

Expand to show TLE details & history
Last TLE update: 2 days ago

TLE from 2 days ago
0 ATLAS 5 CENTAUR DEB
1 57595U 18079HW  25287.02648500 -.00000059  00000-0  00000-0 0  9990
2 57595  12.1780  90.1839 4670921 204.5545 123.2995  1.69245595 24100
Epoch: 2025-10-14T00:38Z
TLE epoch observation values (Epoch: 2025-10-14T00:38:08.304Z)
Latitude
-0.00003°
Longitude
57.82775°
Altitude
34,031.889 km
Speed
2.515 km/s
True Right ascension
06h 00m 43s
True Declination
0° 00' 00"
Sunlit
Object was in daylight at epoch
Visualization orbit readout
Latitude
Unknown
Longitude
Unknown
Altitude
Unknown
Speed
Unknown
Apparent Right ascension
Unknown
Apparent Declination
Unknown
Sunlit
N/A
Visualization observer readout
Local Sidereal Time
12:43:51
Azimuth
Unknown
Elevation
Unknown
Doppler factor
Unknown
Orbital elements
Apogee altitude
37,261.094 km
Perigee altitude
9,473.418 km
Semi-major axis
29,745.393 km
Eccentricity
0.46709
Inclination
12.178°
RAAN
90.1839°
Arg. of periapsis
204.5545°
True anomaly
155.49524°
Mean anomaly
123.2995°
Eccentric anomaly
140.36948°
Mean motion
0.42307 °/min
Orbital period
850.92 mins
BSTAR
0
Loading maneuver chart data...
Computing Atmospheric mass density...

Documentation

Showing up to 5 results
|